Tracking 27112 objects as of 27-Mar-2023
HD Live streaming from Space Station
objects crossing your sky now

STARLINK-2592

Track STARLINK-2592 now!
10-day predictions
STARLINK-2592 is classified as:


NORAD ID: 48408
Int'l Code: 2021-038BH
Perigee: 553.3 km
Apogee: 555.5 km
Inclination: 53.1 °
Period: 95.6 minutes
Semi major axis: 6925 km
RCS: Unknown
Launch date: May 4, 2021
Source: United States (US)
Launch site: AIR FORCE EASTERN TEST RANGE (AFETR)
Your satellite tracking list
Your tracking list is empty




NASA's NSSDC Master Catalog

Two Line Element Set (TLE):
1 48408U 21038BH  23085.85127739  .00021945  00000-0  14880-2 0  9992
2 48408  53.0519 144.7122 0001612 101.7638 258.3532 15.06387993105281
Source of the keplerian elements: AFSPC